Tracking 32422 objects as of 7-Dec-2025
HD Live streaming from Space Station
objects crossing your sky now

STARLINK-30530

Track STARLINK-30530 now!
10-day predictions
STARLINK-30530 is classified as:


NORAD ID: 58005
Int'l Code: 2023-153Q
Perigee: 565.3 km
Apogee: 567.1 km
Inclination: 43.0 °
Period: 95.8 minutes
Semi major axis: 6937 km
RCS: Unknown
Launch date: October 5, 2023
Source: United States (US)
Launch site: AIR FORCE EASTERN TEST RANGE (AFETR)
Your satellite tracking list
Your tracking list is empty




NASA's NSSDC Master Catalog

Two Line Element Set (TLE):
1 58005U 23153Q   25340.91998139  .00000521  00000-0  53662-4 0  9999
2 58005  43.0048 212.6357 0001312 266.8938  93.1755 15.02535422120927
Source of the keplerian elements: AFSPC